Regional Weather Roundup
Issued by NWS

Home | Current Version | Previous Version | Graphics & Text | Print | Product List | Glossary On
Versions: 1 2 3 4 5 6 7 8 9 10 11 12 13 14 15 16 17 18 19 20 21 22 23 24 25 26 27 28 29 30 31 32 33 34 35 36 37 38 39 40 41 42 43 44 45 46 47 48 49 50
000
ASUS43 KLOT 231308
RWRIL

ILLINOIS REGIONAL WEATHER ROUNDUP
NATIONAL WEATHER SERVICE CHICAGO/ROMEOVILLE IL
800 AM CDT WED AUG 23 2017

NOTE: "FAIR" INDICATES FEW OR NO CLOUDS BELOW 12,000 FEET WITH NO
SIGNIFICANT WEATHER AND/OR OBSTRUCTIONS TO VISIBILITY.

* THESE STATIONS ARE NOT UNDER NWS QUALITY CONTROL. THEY ALSO MAY NOT
  REPORT WEATHER SUCH AS PRECIPITATION OR FOG.

ILZ001-002-007-009-015-016-024-231400-
NORTHWEST ILLINOIS

CITY           SKY/WX    TMP DP  RH WIND       PRES   REMARKS
MOLINE         SUNNY     61  54  77 W3        30.09S
STERLING*      SUNNY     59  54  83 W3        30.08S
SAVANNA*       SUNNY     60  53  77 NW3       30.08S
$$

ILZ003-004-008-010-011-017-018-231400-
NORTH CENTRAL ILLINOIS

CITY           SKY/WX    TMP DP  RH WIND       PRES   REMARKS
ROCKFORD       SUNNY     61  52  72 VRB5      30.08R
FREEPORT*      SUNNY     57  52  82 W5        30.09S
ROCHELLE*      SUNNY     55  53  93 CALM      30.08R
DE KALB*       SUNNY     59  53  80 NW8       30.07S
PERU*          SUNNY     57  53  85 NW5       30.07S
$$

ILZ005-006-012>014-019>023-231400-
NORTHEAST ILLINOIS

CITY           SKY/WX    TMP DP  RH WIND       PRES   REMARKS
CHICAGO-OHARE  SUNNY     65  50  58 NW13      30.03S
CHICAGO-MIDWAY SUNNY     64  52  64 NW7       30.04R
AURORA         SUNNY     58  55  90 W6        30.06R
LANSING*       MOSUNNY   63  55  77 NW6       30.04
JOLIET*        SUNNY     63  54  72 NW3       30.06S
WAUKEGAN       SUNNY     62  54  74 NW6       30.02S
DUPAGE AIRPORT SUNNY     62  53  72 NW10      30.04S
KANKAKEE*      MOSUNNY   58  55  89 W5        30.07R
WHEELING       SUNNY     63  53  70 NW9       30.04S
MORRIS*        SUNNY     59  55  85 NW6       30.05R
ROMEOVILLE*    SUNNY     60  53  75 NW7       30.05S
NORTHERLY ISL    N/A     67  50  54 W9          N/A
$$

LMZ740>746-231400-
SOUTHERN LAKE MICHIGAN

STATION/POSITION SKY/WX   TEMP    WIND        PRES    VSBY  WAVE
                          AIR SEA DIR/SP/G                  HT/PER
                          (F)     (DEG/KT/KT) (MB)    (MI)  (FT/S)
SOUTHERN BUOY              67 71  330/ 17/ 21 1015.1          4/ 5
WILMETTE HARBOR            65 73  300/ 14/ 17   N/A           3/ 3
HARRISON CRIB              66     290/ 15/ 16   N/A
CALUMET HARBOR             65     270/  3/ 10 1016.4R
BURNS HARBOR               69     290/ 13/ 15 1017.3R
MICHIGAN CITY              69     280/ 16/ 19   N/A
MICHIGAN CITY 6N           69 73  310/ 14/ 19   N/A           5/ 6
ST. JOSEPH                 70 73  340/ 16/ 21 1016.1          5/ 5
$$

ILZ025>027-034>036-040-047-049-050-058-095>099-231400-
WEST-CENTRAL ILLINOIS

CITY           SKY/WX    TMP DP  RH WIND       PRES   REMARKS
QUINCY         SUNNY     59  55  87 NW5       30.12R
GALESBURG*     SUNNY     56  54  93 NW3       30.11S
MACOMB*        SUNNY     58  56  93 NW6       30.13S
JACKSONVILLE*  SUNNY     58  56  91 NW3       30.10S
PITTSFIELD*    SUNNY     60  56  84 NW3       30.13R
$$

ILZ028>032-037-038-041>044-048-051>054-059>061-231400-
CENTRAL ILLINOIS

CITY           SKY/WX    TMP DP  RH WIND       PRES   REMARKS
PONTIAC        SUNNY     58  57  98 CALM      30.08S
BLOOMINGTON    SUNNY     62  53  72 NW8       30.09S
DECATUR        SUNNY     64  53  67 NW10      30.08S
PEORIA         SUNNY     60  55  83 VRB3      30.09S
LACON*         MOSUNNY   58  55  90 CALM      30.08S
LINCOLN*       SUNNY     60  56  88 NW5       30.08S
SPRINGFIELD    SUNNY     63  58  83 NW6       30.09S
TAYLORVILLE    SUNNY     59  57  92 N3        30.10R
$$

ILZ033-039-045-046-055>057-062-063-231400-
EAST-CENTRAL ILLINOIS

CITY           SKY/WX    TMP DP  RH WIND       PRES   REMARKS
CHAMPAIGN      SUNNY     61  55  81 NW6       30.07S
RANTOUL*       SUNNY     62  56  81 NW8       30.07S
MATTOON        SUNNY     60  57  89 N7        30.07R
PARIS*         SUNNY     59  56  91 NW5       30.08R
$$

ILZ079-100>102-231400-
SOUTHWEST ILLINOIS

CITY           SKY/WX    TMP DP  RH WIND       PRES   REMARKS
ALTON          SUNNY     61  57  88 NW7       30.11R
BELLEVILLE     SUNNY     64  56  75 NW8       30.11R
CAHOKIA*       SUNNY     66  58  75 CALM      30.11R
SPARTA*        SUNNY     62  57  84 NW5       30.11R
$$

ILZ064>066-069>071-074>076-080>082-084>086-088>090-092>094-231400-
SOUTH-CENTRAL ILLINOIS

CITY           SKY/WX    TMP DP  RH WIND       PRES   REMARKS
CARBONDALE     MOSUNNY   62  60  93 NW6       30.10R
CAIRO*         SUNNY     66  62  86 N3        30.08S
EFFINGHAM*     MOSUNNY   62  60  94 CALM      30.09S
MARION         MOSUNNY   64  61  88 N7        30.09R
MT. VERNON       N/A     63  58  83 VRB6      30.09R
CENTRALIA*     SUNNY     64  59  85 CALM      30.08S
SALEM*         SUNNY     62  57  84 N3        30.09R
METROPOLIS*    SUNNY     66  61  84 N5        30.08R
$$

ILZ067-068-072-073-078-083-087-091-231400-
SOUTHEAST ILLINOIS

CITY           SKY/WX    TMP DP  RH WIND       PRES   REMARKS
LAWRENCEVILLE  SUNNY     63  58  83 N6        30.06R
FLORA*         SUNNY     63  59  87 NW5       30.08R
FAIRFIELD*     SUNNY     63  58  83 CALM      30.07R
HARRISBURG*    SUNNY     64  59  84 NW5       30.08R
ROBINSON*      SUNNY     60  57  88 N5        30.07S
CARMI*         SUNNY     63  60  91 NW6       30.06S
$$

ABBREVIATIONS USED IN REMARKS
   TC - TEMPERATURE IN CELSIUS
  WCI - WIND CHILL INDEX
   HX - HEAT INDEX
  VSB - VISIBILITY
$$





USA.gov is the U.S. government's official web portal to all federal, state and local government web resources and services.